Content
SEND FEEDBACK

Daily
Averages
Monthly
Summary
United States of America

LEON, OKLAHOMA


Home > North America > United States > Oklahoma
Elevation: 860 feet     Latitude: 34 02N     Longitude: 097 32W

WEATHER
 
SELECT A DAY
Number of Records: 743,400;   Date Range: 5/11/98 - 12/24/14
 
SHARE

PRINT THIS DATA

[ ← Previous Day ]
WEATHER ALMANAC - JANUARY 23, 2013
[ Next Day → ]
[ °C ]   °F
Weather ElementAverageHighLow
Temperature54 °F73.4 °F (3:15 pm)37.4 °F (3:55 am)
Dewpoint44.2 °F50 °F (11:55 am)35.6 °F (3:15 am)
Humidity72.4 %93 % (1:15 am)41 % (3:15 pm)
Barometer30.18 in30.25 in (10:15 am)30.11 in (4:15 pm)
Wind Speed2.6 mph9.2 mph (2:35 pm)
Weather ElementAverage
Visibility10 mi
Wind DirectionENE (84.1 °)

Weather ElementTotal
Precipitation---
Heating Degree Days9.6 (Base 65)
Growing Degree Days5.4 (Base 50)
Averaged from 68 records on January 23, 2013
WEATHER CONDITIONS BREAKOUT
WIND DIRECTION BREAKOUT
WEATHER BY HOUR - JANUARY 23, 2013
[ °C ]   °F
Local TimeTemperatureDewpointHumidityBarometerVisibilityWind DirectionWind SpeedGust SpeedPrecipitationEventsConditions
12:35 AM44.6 °F41.0 °F87 %30.21 in10.0 miCalmClear
12:55 AM44.6 °F41.0 °F87 %30.21 in10.0 miESE (110°)3.5 mphClear
1:15 AM42.8 °F41.0 °F93 %30.21 in10.0 miEast (80°)3.5 mphClear
1:35 AM42.8 °F41.0 °F93 %30.21 in10.0 miEast (80°)3.5 mphClear
1:55 AM42.8 °F39.2 °F87 %30.20 in10.0 miNE (50°)3.5 mphClear
2:15 AM41.0 °F37.4 °F87 %30.22 in10.0 miNNE (30°)5.8 mphClear
2:35 AM41.0 °F37.4 °F87 %30.23 in10.0 miNE (50°)4.6 mphClear
2:55 AM41.0 °F37.4 °F87 %30.23 in10.0 miENE (70°)4.6 mphClear
3:15 AM41.0 °F35.6 °F81 %30.23 in10.0 miCalmClear
3:35 AM39.2 °F35.6 °F87 %30.22 in10.0 miCalmClear
3:55 AM37.4 °F35.6 °F93 %30.21 in10.0 miCalmClear
4:15 AM37.4 °F35.6 °F93 %30.20 in10.0 miCalmClear
4:35 AM39.2 °F35.6 °F87 %30.21 in10.0 miCalmClear
4:55 AM39.2 °F35.6 °F87 %30.21 in10.0 miCalmClear
5:15 AM37.4 °F35.6 °F93 %30.21 in10.0 miCalmClear
5:35 AM37.4 °F35.6 °F93 %30.22 in10.0 miENE (60°)3.5 mphClear
6:35 AM37.4 °F35.6 °F93 %30.21 in10.0 miCalmClear
6:55 AM37.4 °F35.6 °F93 %30.22 in10.0 miCalmClear
7:15 AM37.4 °F35.6 °F93 %30.23 in10.0 miCalmClear
7:35 AM37.4 °F35.6 °F93 %30.23 in10.0 miCalmClear
7:55 AM37.4 °F35.6 °F93 %30.23 in10.0 miCalmClear
8:15 AM37.4 °F35.6 °F93 %30.23 in7.0 miCalmClear
8:35 AM41.0 °F37.4 °F87 %30.23 in10.0 miCalmClear
8:55 AM42.8 °F37.4 °F81 %30.23 in10.0 miCalmClear
9:15 AM44.6 °F39.2 °F81 %30.24 in10.0 miCalmClear
9:35 AM46.4 °F41.0 °F81 %30.24 in10.0 miCalmClear
9:55 AM50.0 °F42.8 °F76 %30.24 in10.0 miSouth (170°)3.5 mphClear
10:15 AM51.8 °F42.8 °F71 %30.25 in10.0 miSouth (180°)4.6 mphClear
10:35 AM55.4 °F44.6 °F67 %30.24 in10.0 miSSW (210°)3.5 mphClear
10:55 AM57.2 °F46.4 °F67 %30.24 in10.0 miWSW (250°)5.8 mphClear
11:15 AM59.0 °F46.4 °F63 %30.25 in10.0 miSW (220°)3.5 mphClear
11:35 AM60.8 °F48.2 °F63 %30.24 in10.0 miWest (260°)3.5 mphClear
11:55 AM64.4 °F50.0 °F59 %30.22 in10.0 miCalmClear
12:15 PM64.4 °F50.0 °F59 %30.21 in10.0 miSSW (210°)5.8 mphClear
12:35 PM66.2 °F50.0 °F56 %30.19 in10.0 miWSW (250°)6.9 mphClear
12:55 PM68.0 °F50.0 °F52 %30.18 in10.0 miWSW (240°)3.5 mphClear
1:15 PM68.0 °F50.0 °F52 %30.17 in10.0 miSSW (200°)8.1 mphClear
1:35 PM69.8 °F50.0 °F49 %30.15 in10.0 miSSW (210°)5.8 mphScattered Clouds
1:55 PM69.8 °F50.0 °F49 %30.15 in10.0 miSSW (200°)6.9 mphScattered Clouds
2:15 PM71.6 °F50.0 °F46 %30.15 in10.0 miWSW (240°)5.8 mphClear
2:35 PM71.6 °F48.2 °F43 %30.14 in10.0 miSW (220°)9.2 mphClear
2:55 PM71.6 °F48.2 °F43 %30.13 in10.0 miSSW (210°)4.6 mphClear
3:15 PM73.4 °F48.2 °F41 %30.13 in10.0 miSouth (190°)8.1 mphClear
3:35 PM71.6 °F46.4 °F41 %30.12 in10.0 miSouth (190°)8.1 mphClear
3:55 PM71.6 °F46.4 °F41 %30.12 in10.0 miSW (220°)9.2 mphClear
4:15 PM71.6 °F46.4 °F41 %30.11 in10.0 miSSW (200°)6.9 mphClear
4:35 PM71.6 °F46.4 °F41 %30.11 in10.0 miSouth (190°)5.8 mphClear
4:55 PM71.6 °F46.4 °F41 %30.12 in10.0 miSSW (210°)5.8 mphClear
5:15 PM69.8 °F46.4 °F43 %30.11 in10.0 miSouth (190°)5.8 mphClear
5:35 PM68.0 °F48.2 °F49 %30.11 in10.0 miSSE (160°)5.8 mphClear
5:55 PM64.4 °F48.2 °F56 %30.11 in10.0 miSouth (180°)4.6 mphClear
6:15 PM62.6 °F50.0 °F63 %30.11 in10.0 miSouth (190°)3.5 mphClear
6:35 PM62.6 °F50.0 °F63 %30.12 in10.0 miCalmClear
6:55 PM62.6 °F50.0 °F63 %30.13 in10.0 miCalmClear
7:15 PM60.8 °F50.0 °F68 %30.13 in10.0 miCalmClear
7:55 PM59.0 °F50.0 °F72 %30.13 in10.0 miCalmClear
8:15 PM59.0 °F48.2 °F67 %30.13 in10.0 miCalmClear
8:35 PM59.0 °F50.0 °F72 %30.15 in10.0 miCalmClear
8:55 PM57.2 °F48.2 °F72 %30.14 in10.0 miCalmClear
9:15 PM57.2 °F50.0 °F77 %30.14 in10.0 miCalmClear
9:35 PM55.4 °F50.0 °F82 %30.14 in10.0 miCalmClear
9:55 PM55.4 °F50.0 °F82 %30.14 in10.0 miCalmClear
10:15 PM55.4 °F50.0 °F82 %30.13 in10.0 miCalmClear
10:35 PM53.6 °F50.0 °F88 %30.13 in10.0 miCalmClear
10:55 PM53.6 °F50.0 °F88 %30.13 in10.0 miCalmClear
11:15 PM53.6 °F50.0 °F88 %30.14 in10.0 miCalmClear
11:35 PM53.6 °F50.0 °F88 %30.13 in10.0 miCalmClear
11:55 PM51.8 °F48.2 °F88 %30.13 in10.0 miCalmClear
Hourly data recorded from K1F0, located miles away from Leon, Oklahoma







STORIES FROM OUR PARTNERS